Showing default

OPS 4467 B, 813

Orbit data source: Space-Track

OPS 4467 B, 813 is a payload satellite in SSO that was launched on Thu, 18 Jun 1964 UTC via a THOR SLV-2 AGENA D launch vehicle from the Air Force Western Test Range (AFWTR). Payload-class satellites include a variety of spacecraft equipped with specific instruments for various scientific and technological missions. These include communications satellites like Starlink; space stations such as the ISS; scientific satellites like the Hubble; Earth observation satellites from companies like Planet Labs, Umbra, and HawkEye 360; GPS; miniature CubeSats for education and research; and military/defense satellites.

Loading next visibility...
Identifier
813, 1964-031B
Orbit
SSO
Last TLE update
19 hours ago
Origin
Manufacturer
RCA/East Windsor
Mission
Defense Weather
Bus & Motor
P35, Unknown motor
Mass
50 kg wet, 50 kg dry
Launch date (UTC)
1964-06-18 (61 years ago)
Launch vehicle
THOR SLV-2 AGENA D
Launch site
Air Force Western Test Range (AFWTR)
Object type
Payload
Rocket body
Debris
Shape & HBR
Cyl, 0.6 m
Radar Cross Section
0.377 m², Medium (>0.1 m² and < 1m²)

Expand to show TLE details & history

TLE from 19 hours ago
0 OPS 4467 B
1 00813U 64031B   25138.73867730  .00000109  00000-0  71270-4 0  9997
2 00813  99.7821 241.8280 0005149 192.0247 168.0805 14.23591422158802
Epoch: 2025-05-18T17:43Z
TLE epoch observation values (Epoch: 2025-05-18T17:43:41.718Z)
Latitude
-0.00011°
Longitude
99.24286°
Altitude
819.739 km
Speed
7.441 km/s
True Right ascension
16h 07m 18s
True Declination
0° 00' 00"
Sunlit
Object was in full shadow at epoch
Visualization orbit readout
Latitude
15.88166°
Longitude
97.30827°
Altitude
819.124 km
Speed
7.443 km/s
Apparent Right ascension
13h 23m 06s
Apparent Declination
-15° 33' 22"
Sunlit
Object is in full shadow
Visualization observer readout
Local Sidereal Time
21:10:43
Azimuth
274.926° WNW
Elevation
-30.427°
Doppler factor
1
Orbital elements
Apogee altitude
814.142 km
Perigee altitude
806.739 km
Semi-major axis
7,188.578 km
Eccentricity
0.00051
Inclination
99.7821°
RAAN
241.828°
Arg. of periapsis
192.0247°
True anomaly
Unknown
Mean anomaly
168.0805°
Eccentric anomaly
Unknown
Mean motion
3.56106 °/min
Orbital period
101.09 mins
BSTAR
0.00007127
Loading maneuver chart data...
Loading SW <> Apogee altitude chart data...
Loading historical data...
Loading historical data...
Loading historical data...
Loading historical data...
Loading historical data...
Loading historical data...
Loading historical data...
Other satellites on launch #31 in the year 1964 (1964-06-18 UTC)

OPS 4467 B Visibility forecast

Observer location: undefined°, undefined°

Span
Click to sort rows by Start time (UTC) header in descending order
Start Az.
Max El. time (UTC)
Max El. Az.
Max El.
End time (UTC)
End Az.
9 mins2025-05-19 19:36:29.551Z21.201° NNE2025-05-19 19:41:29.551Z128.343° SE42.47°2025-05-19 19:45:29.551Z185.139° SSW
4 mins2025-05-19 21:18:29.551Z324.419° NNW2025-05-19 21:20:29.551Z298.788° NW15.55°2025-05-19 21:22:29.551Z273.626° WNW
4 mins2025-05-20 05:20:29.551Z82.513° E2025-05-20 05:22:29.551Z56.909° ENE15.373°2025-05-20 05:24:29.551Z32.282° NE
9 mins2025-05-20 06:57:29.551Z174.855° S2025-05-20 07:01:29.551Z256.001° W43.174°2025-05-20 07:06:29.551Z339.807° N
|